This is the latest recevied weather packets stored in our database for station/object DC2ML-10. If no packets are shown the sender has not sent any weather packets the latest 10 day(s).
| Time | Temp. | Humidity | Pressure | Rain* | Wind** | Luminosity | Snow |
|---|---|---|---|---|---|---|---|
| 1777855628 | 21.67° C | 41% | 1013.5 hPa | - | - | - | - |
| 1777852328 | 22.22° C | 41% | 1013.5 hPa | - | - | - | - |
| 1777849028 | 22.22° C | 41% | 1013.4 hPa | - | - | - | - |
| 1777845727 | 22.22° C | 40% | 1013.3 hPa | - | - | - | - |
| 1777842426 | 22.78° C | 40% | 1013.5 hPa | - | - | - | - |
| 1777839126 | 23.89° C | 37% | 1013.5 hPa | - | - | - | - |
| 1777835825 | 23.89° C | 37% | 1013.2 hPa | - | - | - | - |
| 1777832525 | 23.89° C | 37% | 1012.8 hPa | - | - | - | - |
| 1777829225 | 23.89° C | 37% | 1012.6 hPa | - | - | - | - |
| 1777825925 | 23.89° C | 37% | 1013 hPa | - | - | - | - |
| 1777822624 | 23.89° C | 36% | 1013 hPa | - | - | - | - |
| 1777819324 | 23.33° C | 36% | 1013.1 hPa | - | - | - | - |
| 1777816024 | 23.89° C | 35% | 1013 hPa | - | - | - | - |
| 1777812724 | 23.33° C | 36% | 1012.9 hPa | - | - | - | - |
| 1777809424 | 23.89° C | 36% | 1013 hPa | - | - | - | - |
| 1777806124 | 23.33° C | 37% | 1012.5 hPa | - | - | - | - |
| 1777802824 | 22.22° C | 38% | 1012.6 hPa | - | - | - | - |
| 1777799524 | 22.22° C | 38% | 1012.7 hPa | - | - | - | - |
| 1777798926 | 22.22° C | 38% | 1012.8 hPa | - | - | - | - |
| 1777795626 | 21.67° C | 38% | 1012.7 hPa | - | - | - | - |
| 1777792326 | 21.67° C | 38% | 1012.8 hPa | - | - | - | - |
| 1777789026 | 21.11° C | 38% | 1012.9 hPa | - | - | - | - |
| 1777785726 | 21.11° C | 38% | 1013 hPa | - | - | - | - |
| 1777782426 | 21.11° C | 38% | 1012.8 hPa | - | - | - | - |
| 1777779126 | 21.11° C | 38% | 1013.2 hPa | - | - | - | - |
* Rain since midnight (hover to see other rain measurements)
** Current wind speed in m/s (hover to see current wind gust speed)